Location: Cheyres
(46.8153°N, 6.7877°E)
Time: 03:14:02
(UTC+00:00)

Cosmos 1242 Rocket - Pass Details

Date: 11 May 2021
Orbit: 446 x 484 km, 81.2° (Epoch: 18 June)

Event Time Altitude Azimuth Distance (km) Brightness Sun altitude
Rises 20:24:19 0° 206° (SSW) 2,512 6.0 -12.9°
Reaches altitude 10° 20:26:29 10° 214° (SW) 1,633 5.1 -13.2°
Maximum altitude 20:29:53 40° 285° (WNW) 702 3.9 -13.6°
Drops below altitude 10° 20:33:15 10° 357° (N) 1,625 6.0 -14.0°
Sets 20:35:25 0° 5° (N) 2,498 6.8 -14.2°
